,,Stat6,,Stat2,,Stat8,,Stat9,,Stat10,,Wind1,,Wind1,
time,status,PA1M_AVG,status,PR1M_SUM,status,RH1M_AVG,status,SR1M_AVG,status,TA1M_AVG,status,W1dAve1m,status,W1sAve1m,
2007-03-28, 00:00:00,VALID,918.449,VALID,0,VALID,100,VALID,-0.0339617,VALID,19.9469,VALID,164,VALID,0,
2007-03-28, 00:01:00,VALID,918.433,VALID,0,VALID,100,VALID,-0.0849042,VALID,19.9699,VALID,164,VALID,0,
2007-03-28, 00:02:00,VALID,918.408,VALID,0,VALID,100,VALID,-0.0509425,VALID,19.9404,VALID,164,VALID,0,
2007-03-28, 00:03:00,VALID,918.375,VALID,0,VALID,100,VALID,-0.0339617,VALID,19.9082,VALID,164,VALID,0,
2007-03-28, 00:04:00,VALID,918.337,VALID,0,VALID,100,VALID,-0.0679233,VALID,19.9307,VALID,164,VALID,0,
2007-03-28, 00:05:00,VALID,918.318,VALID,0,VALID,100,VALID,-0.0849042,VALID,19.9636,VALID,164,VALID,0.1875,
2007-03-28, 00:06:00,VALID,918.311,VALID,0,VALID,100,VALID,-0.0509425,VALID,19.9404,VALID,164,VALID,0.393415,
2007-03-28, 00:07:00,VALID,918.283,VALID,0,VALID,100,VALID,-0.0679233,VALID,19.9082,VALID,164,VALID,0.288872,
2007-03-28, 00:08:00,VALID,918.266,VALID,0,VALID,100,VALID,-0.0169808,VALID,19.8595,VALID,164,VALID,0.324123,
2007-03-28, 00:09:00,VALID,918.255,VALID,0,VALID,100,VALID,-0.0339617,VALID,19.8039,VALID,164,VALID,0.39117,
2007-03-28, 00:10:00,VALID,918.244,VALID,0,VALID,100,VALID,-0.0339617,VALID,19.7747,VALID,164,VALID,0.456499,
2007-03-28, 00:11:00,VALID,918.236,VALID,0,VALID,100,VALID,-0.0339617,VALID,19.7944,VALID,164,VALID,0.354759,
2007-03-28, 00:12:00,VALID,918.219,VALID,0,VALID,100,VALID,-0.0509425,VALID,19.8333,VALID,164,VALID,0.341797,
2007-03-28, 00:13:00,VALID,918.184,VALID,0,VALID,100,VALID,-0.0339617,VALID,19.8755,VALID,164,VALID,0.244665,
2007-03-28, 00:14:00,VALID,918.181,VALID,0,VALID,100,VALID,-0.0849042,VALID,19.9112,VALID,164,VALID,0,
2007-03-28, 00:15:00,VALID,918.159,VALID,0,VALID,100,VALID,-0.0509425,VALID,19.9279,VALID,164,VALID,0,
2007-03-28, 00:16:00,VALID,918.144,VALID,0,VALID,100,VALID,-0.0339617,VALID,19.901,VALID,164,VALID,0,
2007-03-28, 00:17:00,VALID,918.135,VALID,0,VALID,100,VALID,-0.0339617,VALID,19.7779,VALID,164,VALID,0,
2007-03-28, 00:18:00,VALID,918.158,VALID,0,VALID,100,VALID,-0.101885,VALID,19.7585,VALID,164,VALID,0,
2007-03-28, 00:19:00,VALID,918.174,VALID,0,VALID,100,VALID,-0.0509425,VALID,19.7687,VALID,164,VALID,0,
2007-03-28, 00:20:00,VALID,918.187,VALID,0,VALID,100,VALID,-0.0509425,VALID,19.7382,VALID,164,VALID,0,
2007-03-28, 00:21:00,VALID,918.198,VALID,0,VALID,100,VALID,-0.0509425,VALID,19.7525,VALID,164,VALID,0,
2007-03-28, 00:22:00,VALID,918.181,VALID,0,VALID,100,VALID,-0.0679233,VALID,19.7587,VALID,164,VALID,0,
2007-03-28, 00:23:00,VALID,918.163,VALID,0,VALID,100,VALID,-0.0169808,VALID,19.7585,VALID,164,VALID,0,
2007-03-28, 00:24:00,VALID,918.149,VALID,0,VALID,100,VALID,-0.0339617,VALID,19.7158,VALID,164,VALID,0,
2007-03-28, 00:25:00,VALID,918.127,VALID,0,VALID,100,VALID,-0.0679233,VALID,19.6966,VALID,164,VALID,0,
2007-03-28, 00:26:00,VALID,918.121,VALID,0,VALID,100,VALID,-0.0679233,VALID,19.6998,VALID,164,VALID,0,
2007-03-28, 00:27:00,VALID,918.11,VALID,0,VALID,100,VALID,-0.0679233,VALID,19.7547,VALID,164,VALID,0,
2007-03-28, 00:28:00,VALID,918.098,VALID,0,VALID,100,VALID,-0.0679233,VALID,19.8004,VALID,164,VALID,0,
2007-03-28, 00:29:00,VALID,918.094,VALID,0,VALID,100,VALID,-0.0849042,VALID,19.6516,VALID,164,VALID,0.0849848,
2007-03-28, 00:30:00,VALID,918.078,VALID,0,VALID,100,VALID,-0.101885,VALID,19.444,VALID,164,VALID,0.272852,
2007-03-28, 00:31:00,VALID,918.08,VALID,0,VALID,100,VALID,-0.0509425,VALID,19.3856,VALID,164,VALID,0.105283,
2007-03-28, 00:32:00,VALID,918.086,VALID,0,VALID,100,VALID,-0.0849042,VALID,19.3951,VALID,164,VALID,0,
2007-03-28, 00:33:00,VALID,918.09,VALID,0,VALID,100,VALID,-0.0339617,VALID,19.4053,VALID,164,VALID,0,
2007-03-28, 00:34:00,VALID,918.081,VALID,0,VALID,100,VALID,-0.0509425,VALID,19.4115,VALID,164,VALID,0,
2007-03-28, 00:35:00,VALID,918.051,VALID,0,VALID,100,VALID,-0.0679233,VALID,19.3756,VALID,164,VALID,0,
2007-03-28, 00:36:00,VALID,918.044,VALID,0,VALID,100,VALID,-0.0849042,VALID,19.3045,VALID,164,VALID,0,
2007-03-28, 00:37:00,VALID,918.028,VALID,0,VALID,100,VALID,-0.0849042,VALID,19.2067,VALID,132,VALID,0.379861,
2007-03-28, 00:38:00,VALID,918.018,VALID,0,VALID,100,VALID,-0.101885,VALID,19.1745,VALID,68,VALID,0.771439,
2007-03-28, 00:39:00,VALID,918.031,VALID,0,VALID,100,VALID,-0.0849042,VALID,19.1325,VALID,56,VALID,0.965892,
2007-03-28, 00:40:00,VALID,918.046,VALID,0,VALID,100,VALID,-0.0679233,VALID,19.1483,VALID,55,VALID,0.669531,
2007-03-28, 00:41:00,VALID,918.071,VALID,0,VALID,100,VALID,-0.0849042,VALID,19.1063,VALID,55,VALID,0.391741,
2007-03-28, 00:42:00,VALID,918.086,VALID,0,VALID,100,VALID,-0.0679233,VALID,19.1288,VALID,41,VALID,0.489211,
2007-03-28, 00:43:00,VALID,918.082,VALID,0,VALID,100,VALID,-0.0679233,VALID,19.2551,VALID,31,VALID,0.590661,
2007-03-28, 00:44:00,VALID,918.075,VALID,0,VALID,100,VALID,0.0169808,VALID,19.3162,VALID,31,VALID,0.37358,
2007-03-28, 00:45:00,VALID,918.054,VALID,0,VALID,100,VALID,0.0339617,VALID,19.3674,VALID,31,VALID,0.090554,
2007-03-28, 00:46:00,VALID,918.033,VALID,0,VALID,100,VALID,0.0509425,VALID,19.4103,VALID,31,VALID,0,
2007-03-28, 00:47:00,VALID,918.009,VALID,0,VALID,100,VALID,0.0509425,VALID,19.4517,VALID,31,VALID,0,
2007-03-28, 00:48:00,VALID,917.979,VALID,0,VALID,100,VALID,0.0679233,VALID,19.4777,VALID,31,VALID,0,
2007-03-28, 00:49:00,VALID,917.955,VALID,0,VALID,100,VALID,0.0339617,VALID,19.4749,VALID,31,VALID,0.270647,
2007-03-28, 00:50:00,VALID,917.923,VALID,0,VALID,100,VALID,0.0679233,VALID,19.4457,VALID,31,VALID,0.325648,
2007-03-28, 00:51:00,VALID,917.908,VALID,0,VALID,100,VALID,0.0339617,VALID,19.4265,VALID,31,VALID,0.352273,
2007-03-28, 00:52:00,VALID,917.903,VALID,0,VALID,100,VALID,0.0509425,VALID,19.4223,VALID,31,VALID,0.316315,
2007-03-28, 00:53:00,VALID,917.899,VALID,0,VALID,100,VALID,0.0849042,VALID,19.4353,VALID,31,VALID,0.400534,
2007-03-28, 00:54:00,VALID,917.905,VALID,0,VALID,100,VALID,0.0509425,VALID,19.4677,VALID,31,VALID,0.49721,
2007-03-28, 00:55:00,VALID,917.908,VALID,0,VALID,100,VALID,0.0169808,VALID,19.4907,VALID,31,VALID,0.361852,
2007-03-28, 00:56:00,VALID,917.898,VALID,0,VALID,100,VALID,0.0509425,VALID,19.4712,VALID,31,VALID,0.359003,
2007-03-28, 00:57:00,VALID,917.88,VALID,0,VALID,100,VALID,0.0509425,VALID,19.4652,VALID,35,VALID,0.537246,
2007-03-28, 00:58:00,VALID,917.851,VALID,0,VALID,100,VALID,0.0169808,VALID,19.3679,VALID,36,VALID,0.612038,
2007-03-28, 00:59:00,VALID,917.806,VALID,0,VALID,100,VALID,-0.0339617,VALID,19.3297,VALID,46,VALID,0.705171,
2007-03-28, 01:00:00,VALID,917.774,VALID,0,VALID,100,VALID,-0.0849042,VALID,19.4013,VALID,89,VALID,0.881747,
2007-03-28, 01:01:00,VALID,917.741,VALID,0,VALID,100,VALID,-0.101885,VALID,19.443,VALID,91,VALID,0.743403,
2007-03-28, 01:02:00,VALID,917.726,VALID,0,VALID,100,VALID,-0.0849042,VALID,19.4692,VALID,102,VALID,0.753815,
2007-03-28, 01:03:00,VALID,917.724,VALID,0,VALID,100,VALID,-0.0849042,VALID,19.5515,VALID,102,VALID,0.575462,
2007-03-28, 01:04:00,VALID,917.713,VALID,0,VALID,100,VALID,-0.0679233,VALID,19.5608,VALID,102,VALID,0.295759,
2007-03-28, 01:05:00,VALID,917.703,VALID,0,VALID,100,VALID,-0.0679233,VALID,19.5151,VALID,102,VALID,0.207127,
2007-03-28, 01:06:00,VALID,917.675,VALID,0,VALID,100,VALID,-0.0849042,VALID,19.4931,VALID,102,VALID,0.275112,
2007-03-28, 01:07:00,VALID,917.645,VALID,0,VALID,100,VALID,-0.0679233,VALID,19.4597,VALID,102,VALID,0.478795,
2007-03-28, 01:08:00,VALID,917.593,VALID,0,VALID,100,VALID,-0.0679233,VALID,19.4178,VALID,102,VALID,0.660792,
2007-03-28, 01:09:00,VALID,917.563,VALID,0,VALID,100,VALID,-0.0339617,VALID,19.3818,VALID,110,VALID,0.71147,
2007-03-28, 01:10:00,VALID,917.532,VALID,0,VALID,100,VALID,-0.0509425,VALID,19.3621,VALID,113,VALID,0.724609,
2007-03-28, 01:11:00,VALID,917.513,VALID,0,VALID,100,VALID,-0.0679233,VALID,19.3364,VALID,122,VALID,0.702592,
2007-03-28, 01:12:00,VALID,917.517,VALID,0,VALID,100,VALID,-0.0679233,VALID,19.3726,VALID,135,VALID,0.763281,
2007-03-28, 01:13:00,VALID,917.513,VALID,0,VALID,100,VALID,-0.0339617,VALID,19.3976,VALID,147,VALID,0.601215,
2007-03-28, 01:14:00,VALID,917.517,VALID,0,VALID,100,VALID,0,VALID,19.4001,VALID,155,VALID,0.81808,
2007-03-28, 01:15:00,VALID,917.507,VALID,0,VALID,100,VALID,0.0169808,VALID,19.4001,VALID,156,VALID,0.819271,
2007-03-28, 01:16:00,VALID,917.524,VALID,0,VALID,100,VALID,0,VALID,19.4365,VALID,155,VALID,0.680804,
2007-03-28, 01:17:00,VALID,917.523,VALID,0,VALID,100,VALID,0.0509425,VALID,19.4325,VALID,154,VALID,0.403832,
2007-03-28, 01:18:00,VALID,917.523,VALID,0,VALID,100,VALID,0,VALID,19.4193,VALID,153,VALID,0.241997,
2007-03-28, 01:19:00,VALID,917.524,VALID,0,VALID,100,VALID,0.0169808,VALID,19.4425,VALID,153,VALID,0.347747,
2007-03-28, 01:20:00,VALID,917.506,VALID,0,VALID,100,VALID,0.0169808,VALID,19.4655,VALID,161,VALID,0.73165,
2007-03-28, 01:21:00,VALID,917.476,VALID,0,VALID,100,VALID,-0.0169808,VALID,19.462,VALID,153,VALID,0.778646,
2007-03-28, 01:22:00,VALID,917.446,VALID,0,VALID,100,VALID,0,VALID,19.4914,VALID,149,VALID,0.915516,
2007-03-28, 01:23:00,VALID,917.402,VALID,0,VALID,100,VALID,0.0169808,VALID,19.5204,VALID,149,VALID,0.863021,
2007-03-28, 01:24:00,VALID,917.363,VALID,0,VALID,100,VALID,0,VALID,19.5625,VALID,149,VALID,0.898996,
2007-03-28, 01:25:00,VALID,917.343,VALID,0,VALID,100,VALID,-0.0169808,VALID,19.6117,VALID,149,VALID,0.746271,
2007-03-28, 01:26:00,VALID,917.333,VALID,0,VALID,100,VALID,0,VALID,19.6242,VALID,151,VALID,0.62642,
2007-03-28, 01:27:00,VALID,917.329,VALID,0,VALID,100,VALID,0,VALID,19.6307,VALID,160,VALID,0.643787,
2007-03-28, 01:28:00,VALID,917.329,VALID,0,VALID,100,VALID,0,VALID,19.6339,VALID,155,VALID,0.784446,
2007-03-28, 01:29:00,VALID,917.332,VALID,0,VALID,100,VALID,0,VALID,19.6272,VALID,155,VALID,0.712984,
2007-03-28, 01:30:00,VALID,917.339,VALID,0,VALID,100,VALID,0,VALID,19.6339,VALID,155,VALID,0.781795,
2007-03-28, 01:31:00,VALID,917.339,VALID,0,VALID,100,VALID,0.0169808,VALID,19.6499,VALID,155,VALID,0.713034,
2007-03-28, 01:32:00,VALID,917.321,VALID,0,VALID,100,VALID,0,VALID,19.6402,VALID,158,VALID,0.637738,
2007-03-28, 01:33:00,VALID,917.327,VALID,0,VALID,100,VALID,-0.0339617,VALID,19.6272,VALID,161,VALID,0.613735,
2007-03-28, 01:34:00,VALID,917.322,VALID,0,VALID,100,VALID,0,VALID,19.6496,VALID,166,VALID,0.622582,
2007-03-28, 01:35:00,VALID,917.345,VALID,0,VALID,100,VALID,0.0169808,VALID,19.6596,VALID,166,VALID,0.441311,
2007-03-28, 01:36:00,VALID,917.363,VALID,0,VALID,100,VALID,0.0339617,VALID,19.6531,VALID,166,VALID,0.309152,
2007-03-28, 01:37:00,VALID,917.375,VALID,0,VALID,100,VALID,0.0169808,VALID,19.5648,VALID,166,VALID,0.332541,
2007-03-28, 01:38:00,VALID,917.375,VALID,0,VALID,100,VALID,0.0169808,VALID,19.436,VALID,162,VALID,0.443576,
2007-03-28, 01:39:00,VALID,917.378,VALID,0,VALID,100,VALID,-0.0169808,VALID,19.4557,VALID,144,VALID,0.646484,
2007-03-28, 01:40:00,VALID,917.364,VALID,0,VALID,100,VALID,-0.0169808,VALID,19.5209,VALID,137,VALID,0.739329,
2007-03-28, 01:41:00,VALID,917.36,VALID,0,VALID,100,VALID,0,VALID,19.5498,VALID,138,VALID,0.569169,
2007-03-28, 01:42:00,VALID,917.355,VALID,0,VALID,100,VALID,0,VALID,19.5628,VALID,139,VALID,0.360328,
2007-03-28, 01:43:00,VALID,917.356,VALID,0,VALID,100,VALID,0,VALID,19.5468,VALID,157,VALID,0.662202,
2007-03-28, 01:44:00,VALID,917.366,VALID,0,VALID,100,VALID,0,VALID,19.5299,VALID,158,VALID,0.663175,
2007-03-28, 01:45:00,VALID,917.378,VALID,0,VALID,100,VALID,0,VALID,19.5204,VALID,158,VALID,0.667791,
2007-03-28, 01:46:00,VALID,917.374,VALID,0,VALID,100,VALID,0.0169808,VALID,19.5401,VALID,158,VALID,0.552507,
2007-03-28, 01:47:00,VALID,917.353,VALID,0,VALID,100,VALID,-0.0169808,VALID,19.5366,VALID,158,VALID,0.586825,
2007-03-28, 01:48:00,VALID,917.338,VALID,0,VALID,100,VALID,0.0169808,VALID,19.5229,VALID,158,VALID,0.497869,
2007-03-28, 01:49:00,VALID,917.315,VALID,0,VALID,100,VALID,0.0169808,VALID,19.5269,VALID,158,VALID,0.4641,
2007-03-28, 01:50:00,VALID,917.29,VALID,0,VALID,100,VALID,0.0169808,VALID,19.5074,VALID,158,VALID,0.231213,
2007-03-28, 01:51:00,VALID,917.271,VALID,0,VALID,100,VALID,0,VALID,19.4749,VALID,158,VALID,0.328125,
2007-03-28, 01:52:00,VALID,917.249,VALID,0,VALID,100,VALID,0,VALID,19.4423,VALID,157,VALID,0.416921,
2007-03-28, 01:53:00,VALID,917.242,VALID,0,VALID,100,VALID,0,VALID,19.4427,VALID,155,VALID,0.482701,
2007-03-28, 01:54:00,VALID,917.221,VALID,0,VALID,100,VALID,0.0339617,VALID,19.4715,VALID,142,VALID,0.591332,
2007-03-28, 01:55:00,VALID,917.216,VALID,0,VALID,100,VALID,0.0169808,VALID,19.4817,VALID,137,VALID,0.57049,
2007-03-28, 01:56:00,VALID,917.206,VALID,0,VALID,100,VALID,0,VALID,19.452,VALID,130,VALID,0.467507,
2007-03-28, 01:57:00,VALID,917.195,VALID,0,VALID,100,VALID,0.0339617,VALID,19.432,VALID,128,VALID,0.526394,
2007-03-28, 01:58:00,VALID,917.184,VALID,0,VALID,100,VALID,0,VALID,19.4358,VALID,128,VALID,0.523624,
2007-03-28, 01:59:00,VALID,917.186,VALID,0,VALID,100,VALID,-0.0339617,VALID,19.4275,VALID,128,VALID,0.665153,
2007-03-28, 02:00:00,VALID,917.185,VALID,0,VALID,100,VALID,-0.0509425,VALID,19.4208,VALID,128,VALID,0.668648,
2007-03-28, 02:01:00,VALID,917.18,VALID,0,VALID,100,VALID,-0.101885,VALID,19.405,VALID,131,VALID,0.573038,
2007-03-28, 02:02:00,VALID,917.15,VALID,0,VALID,100,VALID,-0.101885,VALID,19.3856,VALID,136,VALID,0.726372,
2007-03-28, 02:03:00,VALID,917.131,VALID,0,VALID,100,VALID,-0.101885,VALID,19.3726,VALID,138,VALID,0.758345,
2007-03-28, 02:04:00,VALID,917.121,VALID,0,VALID,100,VALID,-0.101885,VALID,19.3664,VALID,137,VALID,0.674219,
2007-03-28, 02:05:00,VALID,917.099,VALID,0,VALID,100,VALID,-0.135847,VALID,19.3526,VALID,154,VALID,0.834722,
2007-03-28, 02:06:00,VALID,917.074,VALID,0,VALID,100,VALID,-0.101885,VALID,19.3659,VALID,157,VALID,0.973958,
2007-03-28, 02:07:00,VALID,917.05,VALID,0,VALID,100,VALID,-0.118866,VALID,19.3793,VALID,158,VALID,1.09604,
2007-03-28, 02:08:00,VALID,917.021,VALID,0,VALID,100,VALID,-0.101885,VALID,19.3694,VALID,158,VALID,1.09728,
2007-03-28, 02:09:00,VALID,916.998,VALID,0,VALID,100,VALID,-0.101885,VALID,19.3397,VALID,159,VALID,0.959302,
2007-03-28, 02:10:00,VALID,916.986,VALID,0,VALID,100,VALID,-0.0849042,VALID,19.3174,VALID,161,VALID,0.864211,
2007-03-28, 02:11:00,VALID,916.967,VALID,0,VALID,100,VALID,-0.101885,VALID,19.2885,VALID,164,VALID,0.835574,
2007-03-28, 02:12:00,VALID,916.94,VALID,0,VALID,100,VALID,-0.101885,VALID,19.2461,VALID,157,VALID,0.870754,
2007-03-28, 02:13:00,VALID,916.911,VALID,0,VALID,100,VALID,-0.101885,VALID,19.2199,VALID,132,VALID,0.544331,
2007-03-28, 02:14:00,VALID,916.9,VALID,0,VALID,100,VALID,-0.0679233,VALID,19.2032,VALID,140,VALID,0.8212,
2007-03-28, 02:15:00,VALID,916.911,VALID,0,VALID,100,VALID,-0.0849042,VALID,19.2004,VALID,148,VALID,0.858132,
2007-03-28, 02:16:00,VALID,916.91,VALID,0,VALID,100,VALID,-0.0509425,VALID,19.1939,VALID,147,VALID,0.730741,
2007-03-28, 02:17:00,VALID,916.923,VALID,0,VALID,100,VALID,-0.0849042,VALID,19.1772,VALID,141,VALID,1.13299,
2007-03-28, 02:18:00,VALID,916.934,VALID,0,VALID,100,VALID,-0.0679233,VALID,19.1807,VALID,143,VALID,0.978365,
2007-03-28, 02:19:00,VALID,916.923,VALID,0,VALID,100,VALID,-0.0679233,VALID,19.1907,VALID,139,VALID,0.687855,
2007-03-28, 02:20:00,VALID,916.924,VALID,0,VALID,100,VALID,-0.0509425,VALID,19.1909,VALID,134,VALID,0.836128,
2007-03-28, 02:21:00,VALID,916.909,VALID,0,VALID,100,VALID,-0.0849042,VALID,19.2104,VALID,131,VALID,0.736737,
2007-03-28, 02:22:00,VALID,916.908,VALID,0,VALID,100,VALID,-0.0849042,VALID,19.2099,VALID,126,VALID,0.734976,
2007-03-28, 02:23:00,VALID,916.886,VALID,0,VALID,100,VALID,-0.0679233,VALID,19.1997,VALID,118,VALID,0.758743,
2007-03-28, 02:24:00,VALID,916.876,VALID,0,VALID,100,VALID,-0.0679233,VALID,19.1772,VALID,122,VALID,0.657012,
2007-03-28, 02:25:00,VALID,916.863,VALID,0,VALID,100,VALID,-0.0509425,VALID,19.1809,VALID,122,VALID,0.743963,
2007-03-28, 02:26:00,VALID,916.858,VALID,0,VALID,100,VALID,-0.0679233,VALID,19.1967,VALID,124,VALID,0.868253,
2007-03-28, 02:27:00,VALID,916.85,VALID,0,VALID,100,VALID,0,VALID,19.2351,VALID,133,VALID,0.849201,
2007-03-28, 02:28:00,VALID,916.838,VALID,0,VALID,100,VALID,-0.0849042,VALID,19.2421,VALID,133,VALID,0.66059,
2007-03-28, 02:29:00,VALID,916.821,VALID,0,VALID,100,VALID,-0.101885,VALID,19.2496,VALID,135,VALID,0.668423,
2007-03-28, 02:30:00,VALID,916.803,VALID,0,VALID,100,VALID,-0.0509425,VALID,19.2321,VALID,135,VALID,0.707465,
2007-03-28, 02:31:00,VALID,916.77,VALID,0,VALID,100,VALID,-0.0339617,VALID,19.2194,VALID,132,VALID,0.57976,
2007-03-28, 02:32:00,VALID,916.759,VALID,0,VALID,100,VALID,-0.0339617,VALID,19.1448,VALID,103,VALID,0.31157,
2007-03-28, 02:33:00,VALID,916.739,VALID,0,VALID,100,VALID,-0.0849042,VALID,19.0799,VALID,97,VALID,0.439808,
2007-03-28, 02:34:00,VALID,916.735,VALID,0,VALID,100,VALID,-0.0679233,VALID,19.1033,VALID,94,VALID,0.224144,
2007-03-28, 02:35:00,VALID,916.744,VALID,0,VALID,100,VALID,-0.0679233,VALID,19.0996,VALID,94,VALID,0.104759,
2007-03-28, 02:36:00,VALID,916.738,VALID,0,VALID,100,VALID,-0.0849042,VALID,19.0769,VALID,94,VALID,0.00390625,
2007-03-28, 02:37:00,VALID,916.742,VALID,0,VALID,100,VALID,-0.0849042,VALID,19.0417,VALID,93,VALID,0.26835,
2007-03-28, 02:38:00,VALID,916.745,VALID,0,VALID,100,VALID,-0.0849042,VALID,19.012,VALID,65,VALID,0.53766,
2007-03-28, 02:39:00,VALID,916.761,VALID,0,VALID,100,VALID,-0.0169808,VALID,18.9986,VALID,57,VALID,0.393483,
2007-03-28, 02:40:00,VALID,916.758,VALID,0,VALID,100,VALID,-0.0679233,VALID,19.0053,VALID,56,VALID,0.283854,
2007-03-28, 02:41:00,VALID,916.754,VALID,0,VALID,100,VALID,-0.0679233,VALID,19.002,VALID,56,VALID,0.210007,
2007-03-28, 02:42:00,VALID,916.747,VALID,0,VALID,100,VALID,-0.101885,VALID,18.9826,VALID,56,VALID,0.00635901,
2007-03-28, 02:43:00,VALID,916.745,VALID,0,VALID,100,VALID,-0.0679233,VALID,18.9668,VALID,56,VALID,0.066311,
2007-03-28, 02:44:00,VALID,916.748,VALID,0,VALID,100,VALID,-0.0679233,VALID,18.9599,VALID,56,VALID,0.0152344,
2007-03-28, 02:45:00,VALID,916.748,VALID,0,VALID,100,VALID,-0.0849042,VALID,18.9928,VALID,56,VALID,0,
2007-03-28, 02:46:00,VALID,916.745,VALID,0,VALID,100,VALID,-0.0509425,VALID,19.0539,VALID,56,VALID,0.11849,
2007-03-28, 02:47:00,VALID,916.756,VALID,0,VALID,100,VALID,-0.0679233,VALID,19.1093,VALID,56,VALID,0,
2007-03-28, 02:48:00,VALID,916.761,VALID,0,VALID,100,VALID,-0.0849042,VALID,19.1121,VALID,56,VALID,0,
2007-03-28, 02:49:00,VALID,916.774,VALID,0,VALID,100,VALID,-0.0339617,VALID,19.0996,VALID,56,VALID,0,
2007-03-28, 02:50:00,VALID,916.783,VALID,0,VALID,100,VALID,-0.0509425,VALID,19.0894,VALID,56,VALID,0,
2007-03-28, 02:51:00,VALID,916.777,VALID,0,VALID,100,VALID,-0.0509425,VALID,19.0577,VALID,56,VALID,0,
2007-03-28, 02:52:00,VALID,916.783,VALID,0,VALID,100,VALID,-0.0849042,VALID,19.0025,VALID,56,VALID,0,
2007-03-28, 02:53:00,VALID,916.779,VALID,0,VALID,100,VALID,-0.101885,VALID,18.9631,VALID,56,VALID,0,
2007-03-28, 02:54:00,VALID,916.807,VALID,0,VALID,100,VALID,-0.0339617,VALID,18.9436,VALID,56,VALID,0.256811,
2007-03-28, 02:55:00,VALID,916.794,VALID,0,VALID,100,VALID,-0.0679233,VALID,18.8982,VALID,53,VALID,0.480382,
2007-03-28, 02:56:00,VALID,916.79,VALID,0,VALID,100,VALID,-0.0849042,VALID,18.9247,VALID,51,VALID,0.455487,
2007-03-28, 02:57:00,VALID,916.777,VALID,0,VALID,100,VALID,-0.0679233,VALID,18.9311,VALID,50,VALID,0.313616,
2007-03-28, 02:58:00,VALID,916.748,VALID,0,VALID,100,VALID,-0.0679233,VALID,18.9374,VALID,50,VALID,0.153832,
2007-03-28, 02:59:00,VALID,916.753,VALID,0,VALID,100,VALID,-0.0849042,VALID,18.9274,VALID,50,VALID,0.107936,
2007-03-28, 03:00:00,VALID,916.755,VALID,0,VALID,100,VALID,-0.0679233,VALID,18.9434,VALID,50,VALID,0.121181,
2007-03-28, 03:01:00,VALID,916.754,VALID,0,VALID,100,VALID,-0.0849042,VALID,18.9504,VALID,49,VALID,0.425872,
2007-03-28, 03:02:00,VALID,916.777,VALID,0,VALID,100,VALID,-0.0339617,VALID,18.908,VALID,30,VALID,0.634115,
2007-03-28, 03:03:00,VALID,916.776,VALID,0,VALID,100,VALID,-0.0509425,VALID,18.889,VALID,16,VALID,0.535243,
2007-03-28, 03:04:00,VALID,916.763,VALID,0,VALID,100,VALID,-0.0849042,VALID,18.882,VALID,9,VALID,0.318004,
2007-03-28, 03:05:00,VALID,916.743,VALID,0,VALID,100,VALID,-0.0849042,VALID,18.8853,VALID,352,VALID,0.150746,
2007-03-28, 03:06:00,VALID,916.733,VALID,0,VALID,100,VALID,-0.0679233,VALID,18.8723,VALID,328,VALID,0.381882,
2007-03-28, 03:07:00,VALID,916.717,VALID,0,VALID,100,VALID,-0.0849042,VALID,18.8526,VALID,11,VALID,0.695499,
2007-03-28, 03:08:00,VALID,916.703,VALID,0,VALID,100,VALID,-0.0339617,VALID,18.8336,VALID,31,VALID,0.821646,
2007-03-28, 03:09:00,VALID,916.708,VALID,0,VALID,100,VALID,-0.0339617,VALID,18.8007,VALID,25,VALID,0.775856,
2007-03-28, 03:10:00,VALID,916.694,VALID,0,VALID,100,VALID,-0.0509425,VALID,18.7947,VALID,20,VALID,0.958891,
2007-03-28, 03:11:00,VALID,916.687,VALID,0,VALID,100,VALID,-0.0509425,VALID,18.7815,VALID,24,VALID,0.926417,
2007-03-28, 03:12:00,VALID,916.676,VALID,0,VALID,100,VALID,-0.0509425,VALID,18.7784,VALID,29,VALID,0.599516,
2007-03-28, 03:13:00,VALID,916.663,VALID,0,VALID,100,VALID,-0.0339617,VALID,18.8039,VALID,25,VALID,0.536932,
2007-03-28, 03:14:00,VALID,916.645,VALID,0,VALID,100,VALID,-0.0339617,VALID,18.8037,VALID,17,VALID,0.700586,
2007-03-28, 03:15:00,VALID,916.622,VALID,0,VALID,100,VALID,-0.0339617,VALID,18.8426,VALID,14,VALID,0.488621,
2007-03-28, 03:16:00,VALID,916.601,VALID,0,VALID,100,VALID,0,VALID,18.8591,VALID,5,VALID,0.65293,
2007-03-28, 03:17:00,VALID,916.578,VALID,0,VALID,100,VALID,0,VALID,18.8688,VALID,5,VALID,0.639101,
2007-03-28, 03:18:00,VALID,916.55,VALID,0,VALID,99.9573,VALID,0.0339617,VALID,18.8748,VALID,5,VALID,0.689757,
2007-03-28, 03:19:00,VALID,916.545,VALID,0,VALID,99.7497,VALID,-0.0169808,VALID,18.9239,VALID,6,VALID,0.529474,
2007-03-28, 03:20:00,VALID,916.534,VALID,0,VALID,99.4255,VALID,0.0509425,VALID,18.9691,VALID,13,VALID,0.426897,
2007-03-28, 03:21:00,VALID,916.529,VALID,0,VALID,99.016,VALID,0,VALID,18.9791,VALID,13,VALID,0.278372,
2007-03-28, 03:22:00,VALID,916.527,VALID,0,VALID,98.8533,VALID,-0.0169808,VALID,18.9888,VALID,13,VALID,0.00436047,
2007-03-28, 03:23:00,VALID,916.527,VALID,0,VALID,98.7833,VALID,0,VALID,18.9921,VALID,13,VALID,0,
2007-03-28, 03:24:00,VALID,916.502,VALID,0,VALID,98.8253,VALID,0,VALID,18.9988,VALID,13,VALID,0,
2007-03-28, 03:25:00,VALID,916.488,VALID,0,VALID,98.9003,VALID,0.0169808,VALID,18.9986,VALID,12,VALID,0.2498,
2007-03-28, 03:26:00,VALID,916.469,VALID,0,VALID,98.426,VALID,0.0169808,VALID,18.9953,VALID,8,VALID,0.441406,
2007-03-28, 03:27:00,VALID,916.458,VALID,0,VALID,98.0674,VALID,0,VALID,19.0016,VALID,7,VALID,0.351042,
2007-03-28, 03:28:00,VALID,916.447,VALID,0,VALID,97.6681,VALID,-0.0169808,VALID,19.0148,VALID,7,VALID,0.157885,
2007-03-28, 03:29:00,VALID,916.45,VALID,0,VALID,97.5003,VALID,0,VALID,19.0474,VALID,7,VALID,0.0703125,
2007-03-28, 03:30:00,VALID,916.437,VALID,0,VALID,97.3896,VALID,-0.0339617,VALID,19.0569,VALID,7,VALID,0,
2007-03-28, 03:31:00,VALID,916.428,VALID,0,VALID,97.1926,VALID,-0.0169808,VALID,19.0505,VALID,7,VALID,0,
2007-03-28, 03:32:00,VALID,916.415,VALID,0,VALID,97.073,VALID,0,VALID,19.0307,VALID,7,VALID,0.0133929,
2007-03-28, 03:33:00,VALID,916.402,VALID,0,VALID,96.9535,VALID,0,VALID,19.0505,VALID,7,VALID,0.00545058,
2007-03-28, 03:34:00,VALID,916.394,VALID,0,VALID,97.045,VALID,0,VALID,19.0792,VALID,7,VALID,0.0779552,
2007-03-28, 03:35:00,VALID,916.381,VALID,0,VALID,96.7805,VALID,0,VALID,19.1088,VALID,7,VALID,0.0457589,
2007-03-28, 03:36:00,VALID,916.383,VALID,0,VALID,96.6508,VALID,0,VALID,19.1346,VALID,7,VALID,0.0363281,
2007-03-28, 03:37:00,VALID,916.363,VALID,0,VALID,96.7805,VALID,-0.0169808,VALID,19.167,VALID,7,VALID,0,
2007-03-28, 03:38:00,VALID,916.378,VALID,0,VALID,96.7437,VALID,-0.0169808,VALID,19.1505,VALID,7,VALID,0,
2007-03-28, 03:39:00,VALID,916.391,VALID,0,VALID,96.764,VALID,-0.0169808,VALID,19.1378,VALID,7,VALID,0,
2007-03-28, 03:40:00,VALID,916.421,VALID,0,VALID,96.8645,VALID,0,VALID,19.1183,VALID,7,VALID,0.122337,
2007-03-28, 03:41:00,VALID,916.414,VALID,0,VALID,96.6674,VALID,-0.0339617,VALID,19.0959,VALID,334,VALID,0.514931,
2007-03-28, 03:42:00,VALID,916.425,VALID,0,VALID,96.3889,VALID,0,VALID,19.1153,VALID,303,VALID,0.369978,